BEIDOU 16

Last updated on Jan. 15, 2021, 6:31 a.m. UTC

1 38953U 12059A   21014.93225995 -.00000183  00000-0  00000-0 0  9990
2 38953   1.6037  84.8509 0009053 260.7396 188.5906  1.00272860 30209
UTC
Height (km)
Latitude
Longitude
Inclination
Orbital Period
UTC large
Height (km)
Speed (km/s)
/
Latitude / Longitude
Inclination (degrees)
Orbital Period (minutes)
Azimuth
Elevation
Range (km)
Doppler Factor
iOS Compass Heading
iOS Angle

Next 30 passes for location: Hong Kong

Rise time Rise Azimuth (degrees) Set time Set Azimuth (degrees) Duration Max altitude (degrees)

No matching passes for this satellites